Location: São Paulo
(23.5507°S, 46.6334°W)
Time: 17:25:34
(UTC-03:00)

Tiros 1 - Pass Details

Date: 15 February 2026
Orbit: 618 x 649 km, 48.4° (Epoch: 8 March)

Event Time Altitude Azimuth Distance (km) Brightness Sun altitude
Rises 05:34:08 0° 233° (SW) 2,974 10.2 -5.3°
Reaches altitude 10° 05:36:34 10° 239° (WSW) 2,056 9.3 -4.8°
Maximum altitude 05:41:04 44° 310° (NW) 894 7.5 -3.8°
Drops below altitude 10° 05:45:31 10° 22° (NNE) 2,022 9.8 -2.8°
Sets 05:47:54 0° 29° (NNE) 2,920 10.7 -2.3°
